[[{"header":{"parameterUnit":"m.s-1","parameterCategory":1,"la1":30.2991,"la2":30.254,"lo1":-89.0895,"lo2":-89.0444,"dy":0.0017,"dx":0.0017,"nx":28,"ny":28,"refTime":"2025-07-31T09:00:00:Z","depth":0,"parameterNumber":2,"parameterNumberName":"U-component_of_WINDS"},"data":[0,0,0,0,0,0,0,0,0,0,0,0,0,0,0,0,0,0,0,0,0,0,0,0,0,0,0,0,0,0,0,0,0,0,0,0,0,0,0,0,0,0,0,0,0,0,0,0,0,0,0,0,0,0,0,0,0,0,2.0937,2.0939,0,2.1069,2.1071,2.1072,2.1088,2.1086,2.1085,2.1084,2.1226,2.1231,2.1236,0,0,0,0,0,0,0,0,0,0,0,0,0,2.0704,2.0708,2.0937,2.0939,2.094,2.1069,2.1071,2.1073,2.1088,2.1086,2.1085,2.1083,2.1224,2.123,2.1236,0,0,0,0,0,0,0,0,0,0,0,0,0,2.0818,2.071,2.0937,2.0963,2.0967,2.1069,2.1071,2.1073,2.1088,2.1086,2.1084,2.1082,2.1222,2.123,2.1237,2.1324,0,0,2.126,2.1264,0,0,0,0,0,0,0,0,2.0811,2.0826,2.0958,2.0962,2.0966,2.106,2.1041,2.1158,2.1089,2.1042,2.1084,2.1081,2.1173,2.1184,2.1214,2.1331,2.1337,2.1261,2.1266,2.1269,2.1271,0,0,0,0,0,0,0,2.0803,2.0821,2.099,2.096,2.0965,2.0971,2.0985,2.1063,2.1118,2.1046,2.1048,2.1063,2.1175,2.1206,2.1217,2.1339,2.1261,2.1267,2.1272,2.1275,2.1535,2.1537,0,0,0,0,0,0,2.079,2.0814,2.0986,2.0994,2.0882,2.0976,2.0992,2.1032,2.1117,2.1127,2.1064,2.1063,2.1195,2.1208,2.1222,2.133,2.1269,2.1276,2.128,2.1533,2.1535,2.1538,0,0,0,0,0,0,2.0785,2.0805,2.098,2.0904,2.0927,2.0983,2.1027,2.1036,2.1067,2.113,2.1141,2.1086,2.1194,2.1212,2.1298,2.1336,2.1279,2.1286,2.153,2.1533,2.1537,2.1547,0,0,0,0,0,0,2.0778,2.0803,2.0835,2.0905,2.0931,2.1052,2.1029,2.104,2.1079,2.1079,2.1154,2.1164,2.1193,2.1287,2.1306,2.1345,2.1292,2.1527,2.1531,2.1536,2.1543,2.155,2.1556,0,0,0,0,0,2.0769,2.0834,2.0836,2.0857,2.0972,2.1054,2.1069,2.11,2.1082,2.1116,2.1157,2.1162,2.1328,2.1296,2.1317,2.1359,2.1525,2.153,2.1535,2.154,2.1549,2.1556,0,0,0,0,0,0,2.0769,2.0843,2.0847,2.0936,2.0988,2.1056,2.11,2.1107,2.1168,2.1165,2.1202,2.1219,2.1304,2.134,2.1303,2.1448,2.1425,2.1435,2.1421,2.143,2.1436,2.1426,2.1298,0,0,0,0,0,2.0779,2.0837,2.09,2.0972,2.0998,2.1044,2.1081,2.11,2.1157,2.118,2.1227,2.1284,2.1349,2.1391,2.1455,2.1548,2.1566,2.1587,2.1594,2.1598,2.1607,2.1661,2.1672,2.1555,2.1555,2.1555,0,0,2.0801,2.0848,2.0884,2.0973,2.1016,2.1078,2.1063,2.1129,2.1176,2.1191,2.1275,2.1311,2.1378,2.1468,2.151,2.1501,2.1643,2.1605,2.1609,2.1615,2.1667,2.1678,2.1688,2.1559,2.1558,2.1558,0,0,2.0872,2.0913,2.0978,2.1021,2.1085,2.1115,2.1131,2.1198,2.1222,2.1307,2.1319,2.1377,2.1488,2.1535,2.1573,2.1661,2.1669,2.1681,2.1715,2.1766,2.1776,2.1784,2.1817,2.1828,2.1689,2.1689,2.1689,0,2.0892,2.0983,2.1011,2.1077,2.1116,2.113,2.1197,2.1238,2.1321,2.1349,2.1336,2.1476,2.1521,2.1623,2.1645,2.1675,2.1696,2.1674,2.1771,2.178,2.1788,2.182,2.1833,2.169,2.169,2.169,2.169,0,2.1005,2.1068,2.1113,2.119,2.1235,2.1301,2.1341,2.1384,2.1398,2.143,2.1517,2.1572,2.1647,2.1672,2.1688,2.1777,2.1769,2.1763,2.1741,2.18,2.1831,2.1843,2.1692,2.1692,2.1691,2.1691,0,0,2.1081,2.1172,2.1188,2.1223,2.1295,2.1346,2.1413,2.1484,2.1521,2.1577,2.1636,2.1729,2.1724,2.1768,2.1789,2.1834,2.1902,2.1823,2.1825,2.1837,2.2005,2.201,2.2024,2.1907,2.1909,2.1911,2.2,0,2.1162,2.128,2.1307,2.1409,2.1469,2.1482,2.1541,2.1593,2.1625,2.1682,2.1718,2.1784,2.1771,2.1798,2.1843,2.1884,2.1937,2.1878,2.1964,2.1967,2.1948,2.204,2.2045,2.2127,2.2012,2.2014,2.2016,0,2.1272,2.1329,2.1437,2.15,2.1527,2.1579,2.1646,2.17,2.1759,2.178,2.1827,2.1844,2.1917,2.1889,2.1991,2.195,2.1987,2.2013,2.2017,2.2027,2.1996,2.2054,2.2153,2.2166,2.2035,2.2033,2.2032,0,2.1319,2.1422,2.15,2.153,2.1606,2.1643,2.1677,2.1733,2.1775,2.1834,2.1862,2.193,2.1968,2.2021,2.2056,2.2032,2.2156,2.2131,2.2176,2.2176,2.2203,2.2201,2.2311,2.2224,2.2224,2.2224,2.2223,0,2.1407,2.1473,2.1522,2.157,2.1645,2.1676,2.175,2.1784,2.1834,2.1891,2.1907,2.196,2.2002,2.2062,2.209,2.2171,2.2188,2.2208,2.2215,2.2207,2.2205,2.2233,2.2229,2.2227,2.2226,2.2226,2.2225,0,2.1473,2.1508,2.1594,2.1658,2.1676,2.1728,2.1785,2.1833,2.1864,2.1936,2.1955,2.2005,2.2076,2.2116,2.2206,2.2224,2.2315,2.2319,2.2294,2.2298,2.2342,2.2337,2.2475,2.2495,2.2393,2.2394,2.2395,0,2.1527,2.1578,2.1647,2.1685,2.1719,2.178,2.1821,2.1854,2.1897,2.1968,2.2008,2.2079,2.2138,2.2252,2.2298,2.2367,2.2373,2.2416,2.2384,2.2375,2.2376,2.2373,2.2379,2.2423,2.2424,2.2424,2.2425,0,2.1622,2.1636,2.1694,2.1758,2.1807,2.1859,2.1912,2.1943,2.1984,2.2032,2.2103,2.2149,2.2239,2.2311,2.2383,2.2421,2.2431,2.2434,2.2449,2.2443,2.2427,2.2437,2.2312,2.2432,2.2431,2.2431,2.243,2.243,2.1685,2.173,2.1786,2.185,2.1892,2.1941,2.1989,2.2026,2.2085,2.216,2.2176,2.2252,2.2311,2.2409,2.2448,2.2509,2.2502,2.2522,2.2528,2.2533,2.2535,2.2415,2.2523,2.2523,2.2522,2.2522,2.2522,0,2.1781,2.1817,2.1875,2.1947,2.1998,2.2,2.2058,2.2101,2.2167,2.2219,2.2276,2.2359,2.2428,2.2479,2.255,2.259,2.2596,2.2607,2.2606,2.2614,2.2537,2.2518,2.2601,2.2601,2.2601,2.2601,2.2601,2.2601,2.1837,2.1915,2.1936,2.2035,2.2072,2.2144,2.2177,2.2223,2.2265,2.2356,2.2412,2.2444,2.2497,2.2572,2.2636,2.2649,2.2675,2.2686,2.2701,2.2628,2.262,2.2612,2.2594,2.2691,2.2691,2.2773,2.2774,2.2774]},{"header":{"parameterUnit":"m.s-1","parameterCategory":1,"la1":30.2991,"la2":30.254,"lo1":-89.0895,"lo2":-89.0444,"dy":0.0017,"dx":0.0017,"nx":28,"ny":28,"refTime":"2025-07-31T09:00:00:Z","depth":0,"parameterNumber":3,"parameterNumberName":"V-component_of_WINDS"},"data":[0,0,0,0,0,0,0,0,0,0,0,0,0,0,0,0,0,0,0,0,0,0,0,0,0,0,0,0,0,0,0,0,0,0,0,0,0,0,0,0,0,0,0,0,0,0,0,0,0,0,0,0,0,0,0,0,0,0,1.5694,1.5694,0,1.5704,1.5704,1.5704,1.5704,1.5703,1.5703,1.5703,1.5713,1.5713,1.5713,0,0,0,0,0,0,0,0,0,0,0,0,0,1.5675,1.5675,1.5694,1.5694,1.5694,1.5703,1.5704,1.5704,1.5704,1.5703,1.5703,1.5703,1.5713,1.5713,1.5714,0,0,0,0,0,0,0,0,0,0,0,0,0,1.5684,1.5675,1.5694,1.5695,1.5696,1.5703,1.5704,1.5704,1.5704,1.5703,1.5703,1.5703,1.5712,1.5713,1.5714,1.5721,0,0,1.5715,1.5716,0,0,0,0,0,0,0,0,1.5683,1.5684,1.5695,1.5695,1.5696,1.5702,1.57,1.5709,1.5704,1.5701,1.5703,1.5703,1.5709,1.571,1.5712,1.5721,1.5722,1.5715,1.5716,1.5716,1.5716,0,0,0,0,0,0,0,1.5683,1.5684,1.5698,1.5695,1.5696,1.5695,1.5696,1.5702,1.5706,1.5701,1.5701,1.5702,1.5709,1.5712,1.5713,1.5722,1.5715,1.5716,1.5716,1.5716,1.5735,1.5735,0,0,0,0,0,0,1.5682,1.5683,1.5698,1.5698,1.5689,1.5696,1.5697,1.57,1.5706,1.5707,1.5702,1.5702,1.5711,1.5712,1.5713,1.5721,1.5716,1.5716,1.5717,1.5735,1.5735,1.5735,0,0,0,0,0,0,1.5681,1.5683,1.5697,1.5691,1.5693,1.5696,1.57,1.5701,1.5703,1.5707,1.5707,1.5704,1.5711,1.5712,1.5718,1.5721,1.5717,1.5717,1.5735,1.5735,1.5735,1.5737,0,0,0,0,0,0,1.5681,1.5683,1.5686,1.5691,1.5693,1.5703,1.57,1.5701,1.5704,1.5704,1.5709,1.5709,1.5711,1.5718,1.5719,1.5722,1.5718,1.5735,1.5735,1.5735,1.5736,1.5737,1.5737,0,0,0,0,0,1.568,1.5687,1.5686,1.5688,1.5697,1.5703,1.5704,1.5706,1.5704,1.5707,1.5709,1.5709,1.572,1.5718,1.572,1.5723,1.5734,1.5735,1.5735,1.5736,1.5737,1.5737,0,0,0,0,0,0,1.5683,1.5687,1.5687,1.5695,1.5699,1.5703,1.5707,1.5707,1.5711,1.5711,1.5712,1.5713,1.5719,1.5722,1.5719,1.5729,1.5727,1.5728,1.5727,1.5728,1.5728,1.5728,1.5718,0,0,0,0,0,1.5684,1.5689,1.5693,1.5699,1.5701,1.5704,1.5706,1.5707,1.5711,1.5712,1.5715,1.5719,1.5723,1.5726,1.573,1.5737,1.5737,1.5739,1.574,1.574,1.5741,1.5743,1.5744,1.5737,1.5737,1.5736,0,0,1.5687,1.569,1.5693,1.57,1.5703,1.5707,1.5705,1.571,1.5713,1.5713,1.5719,1.5721,1.5725,1.5731,1.5734,1.5733,1.5743,1.5741,1.5741,1.5741,1.5743,1.5744,1.5745,1.5737,1.5737,1.5737,0,0,1.5695,1.5698,1.5703,1.5706,1.571,1.5711,1.5712,1.5716,1.5718,1.5723,1.5723,1.5726,1.5734,1.5736,1.5738,1.5745,1.5745,1.5746,1.5749,1.5751,1.5752,1.5752,1.5754,1.5754,1.5747,1.5747,1.5747,0,1.5698,1.5705,1.5706,1.5711,1.5713,1.5713,1.5718,1.572,1.5725,1.5727,1.5725,1.5734,1.5737,1.5743,1.5744,1.5746,1.5747,1.5746,1.5752,1.5752,1.5753,1.5754,1.5755,1.5747,1.5747,1.5747,1.5747,0,1.5708,1.5713,1.5716,1.5721,1.5724,1.5728,1.573,1.5732,1.5732,1.5734,1.5739,1.5742,1.5746,1.5747,1.5748,1.5753,1.5752,1.5751,1.5749,1.5753,1.5755,1.5755,1.5747,1.5747,1.5747,1.5747,0,0,1.5718,1.5722,1.5723,1.5725,1.5728,1.5732,1.5736,1.574,1.5741,1.5744,1.5747,1.5753,1.5752,1.5754,1.5755,1.5757,1.576,1.5756,1.5756,1.5756,1.5765,1.5765,1.5766,1.576,1.576,1.576,1.5765,0,1.5726,1.5733,1.5734,1.574,1.5744,1.5743,1.5746,1.5748,1.5749,1.5752,1.5753,1.5757,1.5755,1.5756,1.5758,1.576,1.5762,1.5759,1.5762,1.5763,1.5761,1.5767,1.5768,1.5772,1.5765,1.5765,1.5765,0,1.5736,1.5738,1.5745,1.5747,1.5748,1.5751,1.5754,1.5757,1.5759,1.5759,1.5761,1.5761,1.5764,1.5762,1.5766,1.5764,1.5766,1.5766,1.5766,1.5767,1.5764,1.5767,1.5773,1.5773,1.5766,1.5766,1.5766,0,1.5741,1.5747,1.5751,1.5752,1.5755,1.5757,1.5758,1.576,1.5761,1.5763,1.5764,1.5767,1.5768,1.577,1.577,1.5769,1.5774,1.5772,1.5774,1.5774,1.5775,1.5775,1.5781,1.5777,1.5777,1.5777,1.5777,0,1.5749,1.5753,1.5753,1.5756,1.576,1.576,1.5764,1.5765,1.5766,1.5768,1.5768,1.577,1.577,1.5772,1.5772,1.5775,1.5776,1.5776,1.5776,1.5776,1.5776,1.5777,1.5776,1.5777,1.5777,1.5777,1.5777,0,1.5756,1.5757,1.5761,1.5762,1.5763,1.5766,1.5767,1.5769,1.5769,1.5772,1.5773,1.5773,1.5776,1.5776,1.5779,1.5779,1.5782,1.5782,1.5781,1.5781,1.5783,1.5782,1.5789,1.579,1.5785,1.5785,1.5785,0,1.5761,1.5764,1.5765,1.5767,1.5768,1.577,1.5771,1.5771,1.5773,1.5774,1.5776,1.5778,1.578,1.5783,1.5784,1.5785,1.5785,1.5787,1.5785,1.5785,1.5784,1.5784,1.5784,1.5788,1.5788,1.5788,1.5788,0,1.5769,1.5769,1.5771,1.5773,1.5774,1.5776,1.5777,1.5778,1.5778,1.578,1.5782,1.5783,1.5785,1.5787,1.5788,1.5789,1.5788,1.5788,1.5789,1.5789,1.5788,1.5788,1.5782,1.5788,1.5788,1.5788,1.5788,1.5788,1.5775,1.5777,1.5778,1.578,1.578,1.5781,1.5783,1.5783,1.5785,1.5787,1.5786,1.5788,1.5789,1.5791,1.5792,1.5793,1.5792,1.5793,1.5793,1.5793,1.5793,1.5788,1.5793,1.5793,1.5793,1.5793,1.5793,0,1.5782,1.5782,1.5784,1.5786,1.5787,1.5786,1.5787,1.5788,1.579,1.5791,1.5792,1.5794,1.5795,1.5795,1.5796,1.5797,1.5797,1.5797,1.5797,1.5797,1.5794,1.5793,1.5798,1.5798,1.5798,1.5798,1.5798,1.5798,1.5786,1.5789,1.5789,1.5792,1.5792,1.5794,1.5794,1.5795,1.5795,1.5797,1.5798,1.5798,1.5798,1.5799,1.58,1.58,1.58,1.5801,1.5801,1.5798,1.5798,1.5797,1.5796,1.5801,1.5801,1.5804,1.5804,1.5804]}]]